Weather History for Alliance, NE

Change the Weather History Date:

Monday, June 4, 2012

  Actual Average Record
Temperature  
Mean Temperature 72 °F 61 °F  
Max Temperature 93 °F 76 °F 93 °F (1977)
Min Temperature 51 °F 46 °F 34 °F (2001)
Degree Days  
Heating Degree Days 0 5  
Month to date heating degree days 4 23  
Since 1 June heating degree days 4 23  
Since 1 July heating degree days 6525 7238  
Cooling Degree Days 7 1  
Month to date cooling degree days 18 4  
Year to date cooling degree days 38 14  
Since 1 June cooling degree days 18 4  
Growing Degree Days 21 (Base 50)    
Moisture  
Dew Point 51 °F    
Average Humidity 59    
Maximum Humidity 96    
Minimum Humidity 21    
Precipitation  
Precipitation 0.00 in 0.11 in 1.48 in (2014)
Month to date precipitation 0.13 0.42  
Year to date precipitation 3.14 5.93  
Sea Level Pressure  
Sea Level Pressure 29.90 in    
Wind  
Wind Speed 14 mph (SE)    
Max Wind Speed 23 mph    
Max Gust Speed 30 mph    
Visibility 10 miles    
Events      
T = Trace of Precipitation, MM = Missing Value Source: NWS Daily Summary

Daily Weather History Graph

Daily Weather History Graph

Search for Another Location

Airport:

Trip Planner

Search our weather history database for the weather conditions in past years. The results will help you decide how hot, cold, wet, or windy it might be!

Date:

Astronomy

Jun. 04, 2012 Rise Set
Actual Time 5:16 AM MDT 8:23 PM MDT
Civil Twilight 4:42 AM MDT 8:57 PM MDT
Nautical Twilight 3:59 AM MDT 9:40 PM MDT
Astronomical Twilight 3:07 AM MDT 10:32 PM MDT
Moon 8:54 PM MDT (6/4) 5:25 AM MDT (6/4)
Length of Visible Light 16h 14m
Length of Day
15h 06m
Full, 100% of the Moon is Illuminated
Jun 4
Full
Jun 11
Last Quarter
Jun 19
New
Jun 26
First Quarter
Jul 3
Full

Hourly Weather History & Observations

Time (MDT) Temp. Dew Point Humidity Pressure Visibility Wind Dir Wind Speed Gust Speed Precip Events Conditions
12:53 AM 59.0 °F 53.1 °F 81% 29.89 in 10.0 mi Calm Calm - N/A   Clear
1:53 AM 54.0 °F 51.1 °F 90% 29.90 in 10.0 mi NE 3.5 mph - N/A   Clear
2:53 AM 52.0 °F 50.0 °F 93% 29.91 in 10.0 mi Calm Calm - N/A   Clear
3:53 AM 51.8 °F 50.0 °F 94% 30.03 in 10.0 mi ESE 4.6 mph - N/A   Clear
4:53 AM 55.0 °F 53.1 °F 93% 29.90 in 10.0 mi East 6.9 mph - N/A   Clear
5:53 AM 57.0 °F 54.0 °F 89% 29.91 in 10.0 mi ESE 8.1 mph - N/A   Clear
6:53 AM 63.0 °F 55.9 °F 78% 29.92 in 10.0 mi SE 10.4 mph - N/A   Clear
7:53 AM 70.0 °F 55.0 °F 59% 29.94 in 10.0 mi SE 15.0 mph - N/A   Clear
8:53 AM 75.0 °F 52.0 °F 44% 29.94 in 10.0 mi SE 17.3 mph 26.5 mph N/A   Clear
9:53 AM 78.1 °F 53.1 °F 42% 29.95 in 10.0 mi SSE 20.7 mph - N/A   Clear
10:53 AM 82.4 °F 51.8 °F 35% 30.07 in 10.0 mi SE 20.7 mph 27.6 mph N/A   Clear
11:53 AM 84.9 °F 51.1 °F 31% 29.94 in 10.0 mi SE 18.4 mph 28.8 mph N/A   Clear
12:53 PM 88.0 °F 50.0 °F 27% 29.91 in 10.0 mi South 18.4 mph 31.1 mph N/A   Clear
1:53 PM 89.1 °F 48.9 °F 25% 29.90 in 10.0 mi SSE 20.7 mph 26.5 mph N/A   Clear
2:53 PM 91.0 °F 48.0 °F 23% 29.88 in 10.0 mi SE 19.6 mph 33.4 mph N/A   Clear
3:53 PM 91.9 °F 48.0 °F 22% 29.85 in 10.0 mi SE 21.9 mph 28.8 mph N/A   Clear
4:53 PM 91.9 °F 46.9 °F 21% 29.82 in 10.0 mi SSE 21.9 mph 28.8 mph N/A   Clear
5:00 PM 91.4 °F 46.4 °F 21% 29.95 in 10.0 mi South 16.1 mph 28.8 mph N/A   Partly Cloudy
5:53 PM 91.0 °F 46.0 °F 21% 29.81 in 10.0 mi South 19.6 mph 29.9 mph N/A   Clear
6:53 PM 88.0 °F 46.9 °F 24% 29.80 in 10.0 mi SSE 17.3 mph - N/A   Clear
7:53 PM 81.0 °F 48.9 °F 33% 29.81 in 10.0 mi SSE 11.5 mph - N/A   Clear
8:53 PM 77.0 °F 52.0 °F 42% 29.83 in 10.0 mi SSE 11.5 mph - N/A   Clear
9:53 PM 73.0 °F 53.1 °F 49% 29.84 in 10.0 mi SSE 11.5 mph - N/A   Clear
10:53 PM 70.0 °F 54.0 °F 57% 29.85 in 10.0 mi SSE 11.5 mph - N/A   Clear
11:53 PM 66.9 °F 55.0 °F 66% 29.85 in 10.0 mi SSE 10.4 mph - N/A   Clear